Weather History for Grand Island, NE

Change the Weather History Date:

Wednesday, November 7, 2012

  Actual Average Record
Temperature  
Mean Temperature 44 °F 43 °F  
Max Temperature 60 °F 54 °F 84 °F (1915)
Min Temperature 27 °F 31 °F -2 °F (1991)
Degree Days  
Heating Degree Days 21 22  
Month to date heating degree days 137 146  
Since 1 July heating degree days 658 669  
Cooling Degree Days 0 0  
Month to date cooling degree days 0 0  
Year to date cooling degree days 1507 1034  
Moisture  
Dew Point 26 °F    
Average Humidity 53    
Maximum Humidity 78    
Minimum Humidity 27    
Precipitation  
Precipitation 0.00 in 0.04 in 0.46 in (1920)
Month to date precipitation T 0.31  
Year to date precipitation 9.36 25.17  
Snow  
Snow 0.00 in 0.00 in 2.00 in (1998)
Month to date snowfall 0.0 0.5  
Since 1 July snowfall T 1.6  
Since 1 September snowfall T 1.6  
Snow Depth 0.00 in    
Sea Level Pressure  
Sea Level Pressure 30.10 in    
Wind  
Wind Speed 10 mph (South)    
Max Wind Speed 18 mph    
Max Gust Speed 24 mph    
Visibility 10 miles    
Events      
T = Trace of Precipitation, MM = Missing Value Source: NWS Daily Summary

Daily Weather History Graph

Daily Weather History Graph

Search for Another Location

Airport:

Trip Planner

Search our weather history database for the weather conditions in past years. The results will help you decide how hot, cold, wet, or windy it might be!

Date:

Astronomy

Nov. 07, 2012 Rise Set
Actual Time 7:11 AM CST 5:21 PM CST
Civil Twilight 6:42 AM CST 5:50 PM CST
Nautical Twilight 6:09 AM CST 6:23 PM CST
Astronomical Twilight 5:37 AM CST 6:55 PM CST
Moon 12:03 AM CST (11/7) 1:34 PM CST (11/7)
Length of Visible Light 11h 07m
Length of Day
10h 09m
Last Quarter, 43% of the Moon is Illuminated
Nov 7
Last Quarter
Nov 13
New
Nov 20
First Quarter
Nov 28
Full
Dec 6
Last Quarter

Hourly Weather History & Observations

Time (CST) Temp. Windchill Dew Point Humidity Pressure Visibility Wind Dir Wind Speed Gust Speed Precip Events Conditions
12:53 AM 30.9 °F 23.5 °F 21.0 °F 67% 30.16 in 10.0 mi NW 8.1 mph - N/A   Clear
1:53 AM 30.9 °F 23.5 °F 21.9 °F 69% 30.18 in 10.0 mi West 8.1 mph - N/A   Clear
2:53 AM 30.0 °F 22.4 °F 21.0 °F 69% 30.19 in 10.0 mi West 8.1 mph - N/A   Clear
3:53 AM 28.9 °F 22.8 °F 21.0 °F 72% 30.19 in 10.0 mi WNW 5.8 mph - N/A   Clear
4:53 AM 28.9 °F 23.9 °F 21.0 °F 72% 30.19 in 10.0 mi WNW 4.6 mph - N/A   Clear
5:53 AM 27.0 °F 23.0 °F 19.9 °F 75% 30.19 in 10.0 mi West 3.5 mph - N/A   Clear
6:53 AM 28.0 °F 24.2 °F 21.0 °F 75% 30.20 in 10.0 mi WSW 3.5 mph - N/A   Clear
7:53 AM 30.9 °F 27.5 °F 24.1 °F 76% 30.22 in 10.0 mi SW 3.5 mph - N/A   Clear
8:53 AM 37.9 °F - 25.0 °F 60% 30.22 in 10.0 mi Calm Calm - N/A   Clear
9:53 AM 46.0 °F 43.1 °F 28.9 °F 51% 30.19 in 10.0 mi SSE 5.8 mph - N/A   Clear
10:53 AM 51.1 °F - 28.9 °F 43% 30.18 in 10.0 mi SE 9.2 mph - N/A   Clear
11:53 AM 54.0 °F - 28.9 °F 38% 30.15 in 10.0 mi SSE 10.4 mph - N/A   Clear
12:53 PM 57.0 °F - 27.0 °F 32% 30.10 in 10.0 mi South 11.5 mph - N/A   Clear
1:53 PM 59.0 °F - 26.1 °F 28% 30.06 in 10.0 mi SSE 13.8 mph - N/A   Clear
2:53 PM 60.1 °F - 27.0 °F 28% 30.03 in 10.0 mi SSE 13.8 mph 20.7 mph N/A   Clear
3:53 PM 59.0 °F - 28.0 °F 31% 30.01 in 10.0 mi South 13.8 mph - N/A   Clear
4:53 PM 57.0 °F - 28.0 °F 33% 30.01 in 10.0 mi South 11.5 mph - N/A   Clear
5:53 PM 52.0 °F - 28.9 °F 41% 30.02 in 10.0 mi SSE 9.2 mph - N/A   Clear
6:53 PM 50.0 °F - 28.9 °F 44% 30.03 in 10.0 mi SSE 9.2 mph - N/A   Clear
7:53 PM 48.0 °F - 28.9 °F 48% 30.01 in 10.0 mi SSE 13.8 mph - N/A   Clear
8:53 PM 46.0 °F 40.2 °F 28.9 °F 51% 30.01 in 10.0 mi South 12.7 mph - N/A   Clear
9:53 PM 46.0 °F 38.5 °F 28.0 °F 50% 29.99 in 10.0 mi South 19.6 mph - N/A   Clear
10:53 PM 45.0 °F 37.6 °F 28.9 °F 53% 29.97 in 10.0 mi South 17.3 mph - N/A   Clear
11:53 PM 42.1 °F 35.2 °F 28.9 °F 60% 29.95 in 10.0 mi South 12.7 mph - N/A   Clear